Vertical_Velocity
1 2 2 2 1 0 -0 -0 0 1 1 2 2 3 3 3 1 0 1 2 2 3 3 3 3 3 3 2 1 1 1 -0 -0 0 1 2 2 2 2 1 1 1 1 1 1 1 1 1 0 -0 -0 0 -0 -0 -0 -0 -1 -1 -2 -2 -2 -1 -1 -1 -1 -1 -2 -2 -3
2 3 3 2 1 0 0 -0 1 1 1 1 3 3 3 2 1 1 1 2 3 4 3 2 3 3 3 2 2 1 1 0 -0 0 1 2 3 3 2 2 2 2 2 1 1 1 1 0 -0 -1 -0 0 -0 -1 -1 -0 -1 -2 -2 -2 -2 -2 -1 -1 -0 -1 -1 -2 -2
2 3 2 2 2 1 1 1 1 1 1 1 2 2 2 2 2 2 2 3 4 4 3 3 3 3 3 2 1 1 1 1 0 1 1 2 3 3 3 2 2 2 2 2 1 1 1 0 -0 -0 -0 0 -0 -1 -1 -0 -1 -2 -2 -2 -2 -1 -1 -1 -1 -1 -1 -2 -2
2 2 3 3 3 3 3 2 2 1 1 1 1 1 2 2 3 3 3 3 4 4 4 4 4 3 2 2 1 1 1 1 1 1 2 3 3 3 3 2 2 2 2 2 1 1 1 0 -0 -0 0 1 -0 -1 -1 -1 -1 -2 -2 -2 -2 -1 -1 -1 -1 -1 -1 -2 -2
2 2 3 4 5 5 5 3 2 1 0 -0 -0 -0 1 3 4 4 3 3 4 5 5 5 3 2 2 2 2 2 2 1 1 1 2 3 4 4 3 2 2 2 2 2 2 1 1 0 0 0 0 0 0 -1 -1 -1 -1 -2 -2 -2 -2 -1 -1 -1 -1 -1 -1 -2 -2
5 5 5 5 6 6 5 3 2 1 -0 -1 -1 -1 0 3 4 4 4 4 5 5 5 4 2 2 2 3 3 2 2 1 1 2 3 4 4 3 3 3 2 2 2 2 2 1 1 0 0 0 0 -0 -0 -0 -0 -1 -1 -2 -2 -2 -1 -1 -1 -0 -1 -1 -1 -1 -2
9 8 6 6 7 6 5 3 2 1 -1 -2 -2 -1 1 3 4 4 4 4 4 4 4 4 3 3 3 3 3 2 2 1 1 2 3 4 4 3 3 3 2 2 2 1 1 1 1 1 0 0 0 0 -1 -1 -0 -0 -1 -2 -2 -2 -1 -1 -1 -0 -0 -1 -1 -1 -1
8 8 8 8 7 6 5 4 2 1 -1 -2 -1 -0 1 2 3 4 4 4 4 4 5 5 3 3 3 4 3 2 2 1 1 2 3 4 4 4 3 3 2 2 1 1 1 1 1 1 1 0 -0 -0 -1 -1 -1 -0 -1 -1 -2 -2 -1 -1 -1 -1 -0 -0 -1 -1 -1
5 7 9 9 8 6 6 4 2 1 -0 -1 -0 1 1 2 3 4 4 4 4 5 5 4 4 4 4 3 3 2 2 2 2 2 3 3 4 3 3 3 2 2 1 1 1 1 1 0 1 0 -0 -1 -1 -1 -0 -0 -0 -1 -1 -2 -2 -1 -1 -2 -1 -0 -0 -1 -1
4 6 8 8 7 7 6 4 2 1 1 0 1 1 1 1 3 4 5 5 5 4 4 4 5 4 3 3 3 2 2 2 2 2 2 3 3 3 3 3 2 1 0 0 1 1 1 0 0 -0 -1 -1 -1 -1 -0 0 0 -0 -1 -1 -2 -2 -1 -1 -1 -1 -1 -1 -1
4 5 5 5 6 7 6 3 2 1 2 2 1 1 2 2 3 5 6 6 4 4 4 6 5 4 3 3 3 2 2 2 2 2 3 3 3 3 3 2 1 0 -0 -0 1 1 1 1 0 -1 -1 -2 -1 -1 -0 0 0 -0 -1 -1 -1 -2 -1 -0 -0 -1 -1 -1 -0
3 3 4 5 6 6 6 4 3 3 3 3 3 2 2 2 3 5 6 5 4 4 5 6 5 4 3 3 3 2 2 1 2 2 3 3 3 3 2 1 0 -0 -0 -0 1 2 1 1 -0 -1 -2 -2 -1 -1 -0 0 0 -0 -1 -1 -1 -2 -1 0 0 -0 -1 -1 -1
2 2 3 5 7 7 7 6 6 5 5 5 5 4 3 3 4 4 5 4 4 4 5 4 4 4 3 3 3 3 2 1 2 2 2 2 2 2 2 0 -0 -0 -0 -0 1 2 1 1 -1 -2 -2 -2 -1 -1 -0 -0 0 -0 -0 -1 -1 -2 -2 -1 -0 -0 -1 -1 -1
1 2 3 5 7 8 9 9 8 8 8 7 6 5 4 3 3 4 4 4 4 4 4 3 3 3 3 4 3 2 1 1 1 1 1 2 2 2 1 0 -0 -0 0 0 1 1 1 0 -1 -2 -2 -2 -1 -0 -0 -0 -0 -0 -0 -1 -1 -2 -2 -1 -0 -0 -0 -1 -1
-0 1 2 4 5 7 8 10 10 10 9 8 7 6 4 3 3 3 4 3 4 3 3 3 3 4 4 4 3 2 1 0 0 1 1 1 2 2 2 1 0 0 0 1 1 1 1 -0 -1 -2 -2 -1 -1 -1 -0 -0 -0 0 -0 -1 -2 -2 -2 -1 -0 0 0 -0 -1
-1 -1 0 1 3 5 7 9 10 10 10 8 7 5 4 2 2 2 3 3 3 3 3 2 3 4 4 3 2 1 1 -0 -0 0 1 1 2 2 2 1 0 0 1 1 1 2 1 -0 -2 -2 -2 -1 -0 -0 -0 -1 -0 -0 -0 -1 -2 -2 -2 -1 -0 1 1 0 -1
-2 -2 -1 -0 1 3 5 7 8 9 8 7 6 4 2 1 2 2 2 3 3 3 3 3 4 4 4 2 1 1 1 -0 -0 0 1 1 2 2 2 1 1 1 1 2 2 2 1 -0 -2 -2 -1 0 1 0 -0 -1 -0 -0 -0 -1 -2 -2 -2 -1 0 1 1 1 -0
-2 -2 -2 -1 0 2 4 5 7 7 7 6 5 3 2 1 2 2 2 3 3 4 4 4 4 4 3 2 1 1 0 0 0 0 1 2 2 2 2 1 1 1 2 2 2 2 1 -1 -2 -1 -0 1 1 1 0 -1 -0 -0 -0 -1 -2 -2 -2 -1 0 1 1 1 0
-2 -2 -2 -1 -0 1 2 4 5 6 6 6 4 3 2 2 3 3 3 3 4 5 6 5 4 4 3 3 2 1 0 0 1 1 1 2 2 2 2 2 1 1 2 3 3 2 1 -1 -2 -1 0 2 2 1 0 -1 -1 -0 -0 -1 -2 -2 -2 -2 -0 1 1 1 0
-3 -2 -1 -1 -0 1 2 4 5 6 6 6 5 4 4 3 4 4 3 3 4 5 5 4 4 4 4 3 2 1 0 0 1 1 1 2 2 3 3 3 1 1 2 4 4 3 1 -1 -1 -0 1 2 2 1 1 -0 -1 -0 -0 -1 -2 -2 -3 -2 0 1 1 1 0
-4 -3 -1 -1 0 1 2 4 5 6 6 7 6 6 5 4 4 4 4 4 4 3 3 3 4 5 4 4 2 1 0 0 1 1 1 2 3 3 3 3 1 1 2 5 4 3 1 -1 -1 0 2 2 2 1 1 -0 -1 -0 -0 -0 -1 -2 -2 -2 0 1 2 1 1
-6 -4 -2 -1 0 1 2 3 5 6 6 7 7 6 4 3 3 3 3 2 1 1 2 4 5 5 5 4 2 1 -0 -1 1 1 2 3 3 3 3 2 1 1 3 5 5 3 1 -1 -0 1 2 3 3 2 1 -1 -1 -0 0 0 -1 -2 -3 -1 0 2 2 2 1
-7 -6 -4 -1 0 1 2 3 5 6 6 7 6 5 4 2 1 1 1 0 -0 0 2 4 6 6 5 3 1 0 -1 -1 0 2 3 4 4 3 2 1 1 2 4 6 5 3 1 0 1 2 2 3 3 2 1 -1 -1 -0 0 1 -1 -2 -3 -1 1 2 2 1 0
-3 -4 -3 -2 -1 1 2 3 4 5 6 6 4 3 2 1 -0 -1 -1 -1 -1 0 2 4 5 5 4 1 -0 -0 0 0 1 3 4 5 4 3 2 1 1 3 5 6 6 4 2 1 1 2 3 3 3 2 1 -0 -0 0 1 1 -1 -2 -2 -1 1 1 1 0 -0
1 -0 -1 -1 -0 0 1 2 3 4 4 4 4 3 3 2 0 -1 -2 -1 -1 0 2 3 3 2 1 -1 -0 0 1 1 2 4 5 5 4 3 2 1 2 4 5 6 6 4 2 2 2 2 3 3 3 2 1 -0 -0 0 1 1 -1 -2 -2 -1 1 1 0 -1 -1
3 3 2 2 2 2 2 1 2 2 3 4 5 5 5 4 3 3 2 1 0 -0 0 1 0 -1 -1 -0 1 2 2 3 4 5 5 5 4 3 2 2 2 3 5 7 6 4 2 2 3 3 3 3 3 2 1 -0 -0 0 1 1 -1 -3 -3 -2 1 2 2 1 1
3 3 4 4 5 4 3 2 2 3 4 5 7 7 7 7 7 7 6 3 0 -1 -2 -1 -2 -1 -0 1 2 3 4 5 5 5 5 5 4 4 3 2 3 4 5 7 6 4 2 2 3 3 4 4 4 3 1 -1 -1 -0 1 1 -1 -3 -3 -1 2 4 5 4 4
4 5 6 7 8 7 6 4 3 2 2 3 5 7 8 9 9 8 5 2 -1 -2 -2 -2 -0 1 1 1 3 5 7 7 6 6 5 5 5 4 4 3 3 4 6 8 6 4 3 2 3 3 3 4 5 4 3 0 -0 0 1 1 -0 -1 -0 2 4 4 4 4 3
7 8 10 11 11 10 8 6 3 -0 -3 -5 -3 -0 2 4 4 3 2 -0 -1 -1 -0 1 2 2 2 2 5 8 9 8 7 6 6 5 5 5 5 5 4 5 6 8 7 5 3 3 3 3 3 3 3 3 3 2 1 1 2 2 0 -0 1 2 3 3 2 2 2
8 10 11 12 11 9 6 4 2 0 -3 -6 -8 -7 -6 -4 -3 -3 -3 -3 -2 -0 2 4 3 3 3 5 7 8 8 8 8 7 6 5 6 6 6 6 5 5 6 9 7 5 4 4 3 3 3 3 2 1 1 1 1 2 2 2 1 -0 -0 0 1 1 1 1 0
6 6 7 6 5 3 1 -1 -1 -1 -2 -3 -6 -7 -7 -6 -5 -4 -4 -2 -1 1 2 3 3 3 4 5 6 6 7 8 8 7 6 7 7 7 7 6 4 4 6 8 7 5 4 3 3 3 4 4 2 1 -0 0 1 1 2 1 0 -0 -1 -1 -0 0 0 0 -1
0 0 0 -0 -1 -2 -2 -3 -3 -2 -2 -1 -1 -2 -2 -2 -1 -1 -0 1 3 4 3 2 3 3 3 3 3 4 5 7 7 7 8 8 8 8 6 5 3 3 5 8 6 4 3 3 3 4 4 4 3 1 -0 -0 0 1 1 1 -0 -1 -1 -1 -0 0 0 -0 -1
-4 -4 -4 -3 -3 -3 -3 -3 -3 -3 -3 -2 0 2 3 3 3 3 4 5 6 6 5 2 2 2 2 2 3 3 5 6 7 8 8 8 8 6 5 3 1 3 5 7 4 3 3 3 3 4 4 4 3 1 -0 -0 0 1 1 1 -1 -1 -1 -0 0 0 0 -1 -2
-6 -5 -5 -4 -3 -3 -3 -3 -3 -3 -3 -2 -0 2 4 5 6 6 5 5 5 4 3 1 1 2 2 3 4 4 5 6 7 8 7 7 6 4 3 1 1 2 4 5 3 2 3 3 3 4 4 4 3 1 0 -0 0 1 1 0 -1 -1 -1 0 0 0 -0 -1 -1
-4 -4 -3 -3 -2 -1 -2 -2 -2 -2 -2 -2 -1 1 2 4 6 6 5 2 2 1 1 1 2 3 3 3 4 5 5 6 6 6 6 5 4 2 1 -0 1 2 3 3 2 3 3 3 3 4 4 4 2 1 0 0 0 0 0 -0 -1 -1 -0 0 0 0 0 -0 -1
-2 -1 -0 -0 1 1 0 -1 -2 -3 -3 -2 -1 -1 0 2 4 5 4 2 1 1 1 2 2 2 2 2 2 3 5 6 5 4 3 3 2 1 -0 -1 -0 1 2 3 3 3 4 3 3 4 4 4 2 1 1 0 0 0 0 -1 -1 -1 -0 0 0 0 0 0 -1
0 1 1 1 2 1 1 -0 -1 -3 -3 -3 -3 -2 -2 -1 0 1 2 2 2 1 0 1 1 -0 -0 1 1 2 3 5 5 3 2 1 1 -0 -1 -1 -1 0 2 4 4 4 3 3 3 4 4 3 2 1 1 0 0 0 -0 -1 -1 -1 -0 0 0 0 0 0 -0
1 0 1 1 1 1 0 -0 -1 -2 -4 -4 -4 -4 -3 -2 -2 -1 -1 0 0 -1 -2 -1 -1 -1 -1 0 0 1 2 4 4 3 2 1 1 0 -0 -1 -1 1 4 5 4 3 3 2 3 3 3 3 2 1 1 0 0 0 -0 -0 -1 -0 0 1 1 1 1 1 0
0 -0 -0 -0 -0 -1 -1 -1 -2 -3 -3 -4 -4 -3 -2 -1 -1 -1 -1 -0 -0 -1 -2 -2 -2 -2 -1 0 0 1 2 3 4 4 3 2 2 2 1 -1 0 3 5 6 4 3 2 2 3 3 3 3 2 2 1 0 -0 -0 0 -0 -0 -0 0 1 1 1 1 1 0
0 -0 -1 -1 -1 -1 -2 -3 -3 -3 -3 -3 -2 -1 0 2 2 2 2 1 1 -0 -1 -2 -2 -2 -1 0 0 1 2 3 4 4 4 4 3 2 1 0 1 4 5 5 4 3 2 2 3 3 3 3 2 2 1 0 -0 -0 0 0 -0 -0 -0 1 1 1 1 1 1
0 -0 -1 -2 -1 -2 -2 -3 -3 -3 -2 -1 -0 1 2 3 4 4 4 3 2 1 1 0 -1 -0 0 1 1 2 3 3 4 5 5 4 3 2 1 1 3 4 5 5 4 2 2 2 2 3 3 3 2 2 1 0 -0 -0 0 0 -0 -1 -0 1 1 1 1 1 1
Height
3077 3075 3074 3073 3072 3070 3069 3068 3067 3066 3064 3063 3062 3061 3059 3058 3056 3055 3054 3053 3052 3051 3049 3048 3047 3046 3044 3043 3041 3040 3038 3037 3036 3034 3034 3033 3032 3030 3029 3028 3026 3025 3024 3022 3021 3019 3018 3017 3015 3014 3013 3012 3011 3010 3009 3008 3006 3004 3003 3001 3000 2999 2997 2996 2994 2992 2990 2989 2986
3073 3072 3071 3069 3068 3067 3066 3064 3064 3062 3061 3060 3059 3057 3056 3054 3053 3052 3051 3050 3049 3048 3046 3045 3044 3042 3041 3039 3038 3037 3035 3034 3032 3031 3030 3029 3028 3027 3026 3024 3023 3022 3020 3019 3018 3016 3015 3014 3012 3011 3010 3009 3009 3008 3006 3005 3003 3002 3000 2999 2997 2996 2994 2993 2992 2990 2988 2986 2984
3069 3068 3067 3066 3065 3064 3062 3061 3060 3059 3058 3056 3055 3054 3053 3051 3050 3049 3048 3047 3046 3044 3043 3042 3040 3039 3038 3036 3035 3033 3032 3030 3029 3028 3027 3026 3025 3024 3023 3021 3020 3019 3017 3016 3014 3013 3012 3010 3009 3008 3007 3007 3006 3005 3004 3002 3000 2999 2998 2996 2994 2993 2992 2990 2989 2987 2985 2984 2982
3065 3064 3063 3062 3061 3060 3059 3058 3056 3055 3054 3053 3051 3050 3049 3048 3047 3045 3044 3044 3042 3041 3040 3039 3037 3036 3034 3033 3031 3030 3029 3027 3026 3025 3024 3023 3022 3021 3019 3018 3017 3015 3014 3013 3011 3010 3008 3007 3006 3005 3004 3004 3003 3002 3000 2999 2998 2996 2995 2994 2992 2990 2989 2988 2986 2984 2983 2981 2979
3061 3060 3059 3058 3057 3056 3055 3054 3052 3051 3050 3049 3048 3046 3045 3044 3043 3042 3041 3040 3039 3038 3037 3035 3034 3032 3031 3029 3028 3027 3025 3024 3023 3022 3020 3019 3019 3018 3016 3015 3014 3012 3011 3009 3008 3006 3005 3004 3003 3002 3001 3001 3000 2999 2998 2996 2995 2993 2992 2991 2989 2988 2986 2985 2983 2982 2980 2979 2977
3058 3056 3055 3054 3054 3053 3051 3050 3049 3047 3046 3044 3043 3042 3042 3041 3040 3039 3038 3036 3036 3034 3033 3031 3030 3029 3027 3026 3025 3024 3022 3021 3019 3018 3017 3016 3015 3014 3013 3011 3010 3009 3007 3006 3004 3003 3002 3001 3000 2999 2998 2998 2997 2995 2994 2993 2992 2990 2989 2988 2987 2985 2984 2982 2981 2979 2978 2976 2974
3054 3053 3052 3050 3049 3049 3048 3046 3045 3044 3042 3040 3039 3039 3038 3037 3036 3035 3034 3033 3032 3031 3029 3028 3027 3025 3024 3023 3022 3020 3019 3018 3016 3015 3014 3013 3012 3010 3009 3008 3007 3005 3004 3002 3001 2999 2998 2998 2997 2996 2995 2994 2994 2993 2991 2990 2989 2988 2987 2985 2984 2983 2981 2979 2978 2976 2975 2974 2972
3051 3049 3048 3047 3046 3045 3044 3043 3041 3039 3038 3036 3035 3034 3034 3033 3032 3031 3030 3029 3028 3027 3026 3024 3023 3022 3021 3019 3018 3017 3016 3014 3013 3012 3011 3009 3008 3007 3006 3005 3003 3002 3000 2999 2997 2996 2995 2994 2994 2993 2992 2991 2990 2989 2989 2987 2986 2985 2984 2983 2981 2980 2979 2977 2975 2974 2972 2971 2969
3047 3046 3045 3044 3043 3042 3041 3039 3038 3036 3034 3033 3032 3031 3030 3029 3028 3027 3026 3025 3024 3024 3022 3021 3020 3019 3017 3016 3015 3014 3012 3011 3010 3009 3007 3006 3005 3004 3003 3001 3000 2998 2997 2995 2994 2993 2992 2991 2990 2989 2989 2988 2987 2986 2985 2984 2983 2982 2981 2980 2979 2977 2976 2974 2973 2971 2970 2968 2967
3044 3043 3042 3040 3039 3038 3037 3036 3034 3032 3031 3029 3028 3027 3026 3025 3024 3024 3023 3022 3021 3020 3019 3018 3016 3015 3014 3013 3011 3010 3009 3007 3006 3005 3004 3003 3001 3000 2999 2998 2996 2994 2993 2991 2990 2989 2988 2988 2987 2986 2986 2985 2984 2983 2982 2981 2980 2979 2978 2977 2976 2975 2973 2972 2970 2969 2967 2966 2964
3040 3039 3038 3037 3036 3035 3034 3032 3030 3029 3027 3026 3024 3024 3022 3021 3020 3020 3019 3018 3017 3016 3015 3014 3013 3011 3010 3009 3008 3007 3005 3004 3003 3001 3000 2999 2998 2997 2996 2994 2993 2991 2989 2988 2987 2986 2985 2984 2984 2983 2982 2982 2981 2980 2979 2978 2978 2977 2976 2974 2974 2972 2971 2969 2968 2966 2964 2963 2962
3037 3035 3034 3034 3032 3031 3030 3028 3027 3025 3024 3022 3021 3020 3019 3018 3017 3016 3015 3014 3013 3012 3011 3010 3009 3008 3007 3005 3004 3003 3002 3000 2999 2998 2997 2995 2994 2993 2992 2991 2989 2987 2986 2984 2983 2982 2982 2981 2980 2980 2979 2978 2978 2977 2976 2975 2974 2974 2973 2972 2971 2969 2968 2967 2965 2964 2962 2961 2959
3033 3032 3031 3030 3029 3027 3026 3024 3023 3022 3020 3019 3017 3016 3015 3014 3013 3012 3011 3010 3010 3009 3008 3006 3005 3004 3003 3002 3001 2999 2998 2997 2995 2994 2993 2992 2991 2989 2988 2987 2985 2984 2982 2981 2980 2979 2978 2977 2977 2976 2976 2975 2974 2974 2973 2972 2971 2971 2970 2969 2968 2967 2965 2964 2963 2961 2959 2958 2957
3030 3028 3027 3026 3025 3024 3022 3021 3019 3018 3017 3015 3014 3013 3011 3010 3009 3009 3008 3007 3006 3005 3004 3003 3002 3000 2999 2998 2997 2996 2994 2993 2992 2990 2989 2988 2987 2986 2984 2983 2982 2980 2979 2977 2976 2975 2974 2974 2974 2973 2973 2972 2971 2970 2970 2969 2968 2968 2967 2966 2965 2964 2963 2961 2960 2959 2957 2955 2954
3026 3025 3024 3022 3021 3019 3019 3017 3016 3014 3013 3012 3010 3009 3008 3007 3006 3005 3004 3003 3002 3001 3000 2999 2998 2997 2996 2994 2994 2992 2991 2989 2988 2987 2986 2984 2983 2982 2981 2980 2978 2977 2975 2974 2973 2972 2971 2970 2970 2970 2969 2969 2968 2967 2966 2966 2965 2965 2964 2963 2962 2961 2960 2959 2958 2956 2955 2953 2952
3023 3021 3020 3019 3017 3016 3015 3014 3012 3011 3009 3008 3007 3005 3004 3003 3002 3001 3000 2999 2999 2998 2997 2995 2994 2994 2992 2991 2990 2989 2987 2986 2984 2983 2982 2981 2979 2979 2977 2976 2974 2973 2971 2970 2969 2968 2967 2967 2967 2967 2966 2965 2964 2964 2963 2963 2962 2962 2961 2960 2959 2958 2957 2956 2955 2954 2952 2951 2949
3020 3018 3017 3015 3014 3012 3011 3010 3008 3007 3005 3004 3003 3001 3000 2999 2998 2997 2997 2996 2995 2994 2993 2992 2991 2990 2989 2987 2986 2985 2984 2982 2981 2979 2978 2977 2976 2975 2974 2972 2971 2969 2968 2966 2965 2964 2964 2964 2964 2964 2963 2962 2961 2961 2960 2959 2959 2959 2958 2957 2956 2955 2954 2953 2952 2951 2950 2948 2947
3017 3015 3013 3011 3010 3009 3007 3006 3004 3003 3001 3000 2999 2997 2996 2995 2994 2994 2993 2992 2992 2990 2989 2989 2988 2986 2985 2984 2983 2981 2980 2979 2977 2976 2975 2974 2972 2971 2970 2969 2967 2965 2964 2962 2961 2961 2960 2960 2961 2960 2960 2959 2958 2958 2957 2957 2956 2956 2955 2954 2954 2952 2951 2951 2950 2949 2947 2946 2944
3014 3012 3010 3008 3006 3005 3003 3002 3000 2999 2997 2996 2994 2993 2993 2992 2991 2990 2990 2989 2988 2987 2986 2985 2984 2983 2982 2980 2979 2978 2976 2975 2974 2972 2971 2970 2969 2967 2966 2964 2963 2961 2960 2959 2958 2957 2957 2958 2958 2957 2957 2956 2955 2954 2954 2954 2954 2953 2953 2952 2951 2949 2949 2948 2947 2946 2945 2943 2942
3010 3008 3006 3005 3003 3001 2999 2998 2996 2995 2993 2992 2991 2990 2989 2989 2988 2987 2986 2986 2985 2984 2983 2982 2980 2979 2978 2977 2976 2974 2973 2972 2970 2969 2967 2966 2965 2964 2962 2961 2959 2958 2956 2955 2954 2954 2954 2954 2955 2954 2954 2953 2952 2951 2951 2950 2950 2950 2950 2949 2948 2947 2946 2945 2944 2943 2942 2941 2939
3007 3005 3003 3001 2999 2998 2996 2994 2993 2991 2990 2988 2987 2986 2985 2985 2984 2984 2983 2982 2981 2980 2979 2978 2977 2976 2975 2974 2972 2971 2969 2968 2966 2965 2963 2962 2961 2959 2959 2957 2955 2954 2952 2951 2951 2951 2951 2952 2952 2951 2950 2950 2949 2949 2948 2948 2947 2947 2947 2946 2945 2944 2943 2943 2942 2941 2940 2938 2937
3003 3002 3000 2998 2996 2994 2993 2991 2989 2988 2986 2985 2984 2983 2982 2981 2981 2980 2979 2978 2977 2976 2975 2975 2974 2973 2972 2970 2969 2967 2965 2964 2962 2961 2959 2958 2957 2956 2955 2953 2951 2949 2949 2948 2947 2948 2948 2949 2949 2948 2948 2947 2946 2945 2945 2944 2944 2944 2944 2944 2943 2942 2941 2940 2939 2939 2937 2936 2934
3000 2998 2996 2995 2993 2991 2989 2988 2986 2984 2983 2982 2980 2979 2979 2978 2977 2977 2976 2974 2974 2973 2972 2971 2970 2969 2968 2967 2965 2963 2962 2960 2958 2957 2955 2954 2953 2952 2951 2949 2947 2946 2945 2944 2944 2945 2945 2946 2946 2945 2944 2944 2943 2942 2942 2942 2942 2942 2941 2941 2940 2939 2938 2937 2937 2936 2935 2933 2932
2996 2994 2993 2991 2989 2987 2985 2984 2983 2981 2980 2979 2977 2976 2975 2974 2974 2973 2972 2971 2970 2969 2968 2968 2967 2965 2964 2963 2961 2959 2957 2956 2954 2953 2952 2950 2949 2948 2946 2945 2943 2942 2941 2941 2941 2942 2943 2943 2943 2942 2941 2941 2940 2939 2939 2939 2939 2939 2939 2938 2937 2936 2935 2935 2934 2934 2932 2931 2929
2992 2990 2989 2987 2985 2984 2982 2980 2979 2978 2976 2975 2974 2973 2972 2970 2969 2969 2968 2967 2966 2965 2964 2964 2963 2961 2960 2958 2957 2955 2954 2952 2950 2949 2948 2947 2945 2944 2942 2941 2939 2939 2938 2938 2938 2939 2940 2940 2940 2939 2939 2938 2937 2936 2936 2936 2936 2936 2936 2935 2934 2934 2933 2932 2932 2931 2929 2928 2926
2989 2987 2985 2984 2982 2980 2978 2976 2975 2974 2973 2972 2971 2969 2968 2967 2965 2965 2964 2963 2962 2961 2960 2960 2959 2957 2956 2954 2953 2951 2950 2948 2947 2945 2944 2943 2941 2940 2939 2937 2936 2935 2935 2935 2935 2936 2937 2938 2937 2937 2935 2935 2934 2934 2933 2933 2934 2934 2933 2933 2932 2931 2930 2929 2929 2929 2927 2926 2924
2987 2985 2983 2981 2979 2977 2975 2973 2972 2971 2970 2969 2967 2966 2965 2964 2962 2961 2960 2959 2958 2957 2957 2956 2954 2953 2952 2951 2949 2948 2946 2945 2943 2941 2940 2939 2938 2936 2935 2934 2933 2932 2932 2932 2933 2934 2934 2935 2934 2934 2933 2932 2931 2931 2930 2930 2931 2931 2931 2930 2929 2928 2928 2927 2927 2926 2925 2924 2923
2984 2982 2981 2979 2977 2975 2973 2971 2969 2968 2966 2965 2964 2963 2962 2961 2959 2958 2957 2956 2955 2954 2953 2952 2951 2950 2949 2947 2946 2944 2943 2941 2939 2938 2936 2935 2934 2932 2931 2930 2929 2929 2929 2929 2930 2931 2932 2932 2932 2931 2930 2929 2929 2928 2928 2928 2928 2928 2928 2928 2927 2926 2925 2925 2925 2924 2924 2922 2921
2981 2980 2979 2977 2975 2973 2971 2969 2967 2965 2964 2962 2961 2960 2959 2958 2957 2956 2955 2954 2952 2951 2949 2948 2947 2946 2945 2944 2942 2941 2939 2937 2936 2934 2933 2931 2930 2929 2928 2927 2926 2926 2926 2926 2927 2928 2929 2929 2929 2928 2927 2926 2925 2925 2925 2925 2925 2926 2926 2925 2924 2924 2923 2923 2922 2922 2921 2919 2918
2979 2977 2976 2974 2972 2970 2968 2966 2965 2963 2962 2960 2959 2958 2957 2956 2954 2953 2952 2951 2949 2948 2946 2945 2944 2942 2941 2940 2939 2937 2936 2934 2932 2931 2929 2928 2927 2926 2925 2924 2923 2923 2923 2923 2924 2925 2927 2927 2926 2925 2924 2923 2922 2922 2922 2922 2923 2923 2923 2923 2922 2921 2920 2920 2919 2919 2918 2916 2915
2975 2974 2972 2970 2969 2967 2965 2963 2962 2960 2959 2958 2957 2955 2954 2953 2951 2950 2949 2947 2946 2944 2943 2941 2940 2939 2938 2937 2935 2934 2932 2931 2929 2927 2926 2924 2923 2923 2922 2921 2920 2919 2919 2920 2921 2923 2924 2924 2924 2923 2922 2921 2920 2919 2919 2919 2920 2920 2920 2920 2919 2919 2918 2917 2916 2915 2914 2914 2912
2971 2969 2968 2967 2965 2964 2962 2960 2958 2957 2956 2954 2953 2951 2950 2948 2947 2946 2944 2943 2941 2940 2939 2937 2936 2935 2934 2933 2931 2930 2929 2927 2925 2924 2922 2921 2920 2919 2919 2918 2917 2916 2916 2917 2919 2920 2922 2922 2921 2920 2919 2918 2917 2916 2916 2917 2917 2918 2918 2917 2916 2915 2915 2914 2914 2913 2912 2911 2909
2967 2966 2965 2963 2962 2960 2958 2956 2954 2953 2952 2950 2949 2947 2945 2944 2943 2941 2940 2939 2937 2935 2934 2933 2933 2932 2930 2929 2928 2926 2924 2923 2922 2920 2919 2918 2917 2916 2915 2914 2913 2913 2913 2914 2916 2918 2919 2919 2918 2917 2917 2916 2915 2914 2914 2914 2914 2915 2915 2914 2914 2913 2912 2911 2911 2910 2909 2908 2907
2964 2962 2961 2960 2958 2956 2954 2953 2951 2949 2948 2947 2945 2944 2942 2940 2939 2938 2936 2934 2933 2931 2930 2929 2929 2928 2927 2925 2924 2922 2921 2919 2918 2917 2916 2915 2914 2913 2912 2911 2910 2909 2909 2911 2914 2916 2917 2916 2915 2915 2914 2914 2912 2912 2911 2912 2912 2912 2912 2911 2911 2910 2909 2909 2908 2907 2906 2905 2904
2959 2958 2957 2956 2954 2952 2950 2949 2947 2946 2944 2943 2941 2940 2939 2938 2936 2934 2933 2930 2929 2928 2927 2926 2925 2924 2923 2921 2920 2919 2917 2916 2915 2914 2913 2911 2910 2909 2909 2908 2906 2906 2907 2909 2912 2914 2914 2913 2913 2912 2912 2911 2910 2909 2909 2909 2909 2909 2909 2909 2908 2908 2907 2906 2906 2905 2904 2903 2902
2955 2954 2953 2951 2950 2948 2947 2945 2943 2942 2940 2939 2938 2936 2935 2934 2933 2931 2929 2927 2925 2924 2923 2922 2921 2920 2919 2918 2917 2915 2914 2913 2912 2910 2909 2908 2907 2906 2905 2904 2903 2903 2905 2907 2909 2911 2911 2910 2910 2909 2909 2908 2907 2907 2907 2907 2907 2907 2907 2906 2906 2905 2904 2904 2903 2902 2901 2900 2899
2951 2950 2949 2947 2946 2944 2943 2941 2939 2938 2936 2935 2934 2932 2931 2930 2929 2927 2925 2924 2922 2921 2920 2919 2918 2917 2916 2915 2914 2913 2911 2909 2908 2907 2906 2905 2904 2902 2901 2901 2900 2901 2902 2905 2906 2907 2908 2908 2907 2907 2906 2905 2904 2904 2904 2904 2904 2905 2904 2904 2904 2903 2902 2901 2901 2900 2899 2898 2897
2948 2946 2945 2944 2942 2941 2939 2937 2936 2934 2933 2931 2929 2928 2927 2926 2925 2924 2922 2921 2919 2918 2917 2915 2914 2914 2913 2912 2910 2909 2908 2906 2905 2904 2902 2901 2900 2899 2898 2897 2897 2898 2899 2902 2903 2904 2904 2904 2904 2904 2904 2903 2902 2902 2902 2902 2902 2902 2902 2902 2901 2901 2900 2899 2899 2898 2897 2896 2895
2944 2943 2942 2940 2939 2937 2935 2934 2932 2931 2929 2927 2926 2924 2923 2922 2921 2920 2919 2917 2916 2915 2914 2912 2911 2910 2909 2908 2906 2905 2904 2903 2901 2900 2899 2897 2896 2895 2894 2894 2894 2895 2897 2899 2900 2901 2901 2902 2901 2901 2901 2900 2899 2899 2899 2899 2900 2900 2900 2899 2899 2898 2898 2897 2896 2895 2895 2894 2893
2941 2940 2938 2937 2935 2934 2932 2930 2929 2927 2926 2924 2923 2921 2920 2919 2918 2916 2915 2914 2912 2911 2910 2909 2907 2906 2905 2904 2903 2902 2900 2899 2898 2896 2895 2894 2893 2892 2891 2891 2891 2892 2894 2895 2897 2898 2898 2899 2899 2899 2898 2897 2897 2897 2897 2897 2897 2898 2898 2897 2897 2896 2895 2895 2894 2894 2893 2892 2891
2939 2937 2935 2934 2932 2930 2929 2927 2926 2924 2923 2921 2919 2918 2917 2915 2914 2913 2911 2910 2909 2907 2906 2905 2904 2902 2901 2900 2899 2898 2896 2895 2894 2892 2891 2890 2889 2889 2888 2887 2888 2889 2891 2892 2894 2894 2895 2895 2896 2896 2895 2895 2894 2894 2894 2895 2895 2895 2895 2895 2894 2894 2893 2893 2892 2891 2890 2889 2889